{"data":{"norad_id":59325,"intl_designator":"2024-057F","name":"STARLINK-31611","alt_names":[],"object_type":"PAYLOAD","status":"ACTIVE","operator":null,"country":"US","launch_date":"2024-03-25","launch_site_code":"AFETR","launch_vehicle":null,"mission":null,"orbit_class":"UNKNOWN","rcs_meters":null,"size_class":null,"mass_kg":null,"dimensions":null,"purposes":["comms"],"wikipedia_slug":null,"has_3d_model":false,"image_url":null,"decayed_at":null,"tle_current":{"epoch":"2026-09-21T03:00:11.436768Z","epoch_age_seconds":108314,"freshness":"FRESH","line1":"1 59325U 24057F   26264.12513237  .00000706  00000+0  35157-4 0  9993","line2":"2 59325  43.0021 163.7703 0001110 269.7472  90.3252 15.27581310139729","mean_motion":15.2758131,"eccentricity":0.000111,"inclination_deg":43.0021,"raan_deg":163.7703,"arg_perigee_deg":269.7472,"mean_anomaly_deg":90.3252,"bstar":3.5157e-5,"rev_number":13972,"period_min":94.266667873804,"perigee_km":482.28358220994,"apogee_km":483.80676465244,"semimajor_km":6861.1821734312,"source":"CELESTRAK","updated_at":"2026-09-22T09:00:48.898730Z"}}}